Springfield, MO

3:57 AM CST on December 10, 2019 (GMT -0600)
Springfield-Branson Regional

Weather History for KSGF - November, 2019

Change the Weather History Date:

Monday, November 18, 2019

  Actual Average Record
Temperature  
Mean Temperature 43 °F 45 °F  
Max Temperature 57 °F 56 °F 78 °F (1930)
Min Temperature 29 °F 34 °F 9 °F (2014)
Degree Days  
Heating Degree Days 22 20  
Month to date heating degree days 416 293  
Since 1 July heating degree days 750 601  
Cooling Degree Days 0 0  
Month to date cooling degree days 0 0  
Year to date cooling degree days 1687 1387  
Moisture  
Dew Point 35 °F    
Average Humidity 66    
Maximum Humidity 100    
Minimum Humidity 43    
Precipitation  
Precipitation T in 0.14 in 4.23 in (1985)
Month to date precipitation 1.24 2.56  
Year to date precipitation 51.11 40.87  
Snow  
Snow 0.00 in - - ()
Month to date snowfall 0.4  
Since 1 July snowfall 0.4  
Since 1 September snowfall 0.4  
Snow Depth 0.00 in    
Sea Level Pressure  
Sea Level Pressure 29.82 in    
Wind  
Wind Speed 6 mph ()    
Max Wind Speed 15 mph    
Max Gust Speed 20 mph    
Visibility 9.1 miles    
Events Rain    
T = Trace of Precipitation, MM = Missing Value Source: Averaged Metar Reports

Daily Weather History Graph

Daily Weather History Graph

Search for Another Location

Airport or City:

Astronomy

Nov. 18, 2019 Rise Set
Actual Time 6:55 AM CST 5:01 PM CST
Civil Twilight 6:27 AM CST 5:29 PM CST
Nautical Twilight 5:55 AM CST 6:01 PM CST
Astronomical Twilight 5:25 AM CST 6:32 PM CST
Moon 10:47 PM CST (11/18) 12:26 PM CST (11/18)
Length of Visible Light 11h 01m
Length of Day
10h 05m
Waning Gibbous, 63% of the Moon is Illuminated
Nov 18
Waning Gibbous
Nov 19
Last Quarter
Nov 26
New
Dec 4
First Quarter
Dec 11
Full

Hourly Weather History & Observations

Time (CST) Temp. Windchill Dew Point Humidity Pressure Visibility Wind Dir Wind Speed Gust Speed Precip Events Conditions
12:52 AM 34.0 °F 29.8 °F 32.0 °F 92% 29.95 in 8.0 mi WSW 4.6 mph - N/A   Clear
2:52 AM 33.1 °F 27.7 °F 30.9 °F 92% 29.92 in 7.0 mi SW 5.8 mph - N/A   Clear
3:52 AM 30.9 °F 27.5 °F 30.9 °F 100% 29.91 in 6.0 mi SSW 3.5 mph - N/A   Clear
4:52 AM 30.0 °F 24.1 °F 28.0 °F 92% 29.91 in 6.0 mi South 5.8 mph - N/A   Clear
6:52 AM 30.0 °F 24.1 °F 28.9 °F 96% 29.90 in 6.0 mi SSE 5.8 mph - N/A   Clear
7:52 AM 34.0 °F 28.0 °F 32.0 °F 92% 29.90 in 7.0 mi South 6.9 mph - N/A   Clear
8:52 AM 39.9 °F 35.8 °F 36.0 °F 86% 29.89 in 10.0 mi South 5.8 mph - N/A   Clear
9:52 AM 48.9 °F - 37.9 °F 66% 29.88 in 10.0 mi SSW 9.2 mph - N/A   Partly Cloudy
10:52 AM 52.0 °F - 36.0 °F 54% 29.87 in 10.0 mi SSW 8.1 mph - N/A   Overcast
11:52 AM 55.0 °F - 35.1 °F 47% 29.82 in 10.0 mi SSW 11.5 mph - N/A   Overcast
12:52 PM 55.0 °F - 34.0 °F 45% 29.78 in 10.0 mi South 12.7 mph - N/A   Overcast
1:52 PM 55.9 °F - 35.1 °F 45% 29.75 in 10.0 mi South 11.5 mph - N/A   Overcast
2:52 PM 55.9 °F - 36.0 °F 47% 29.73 in 10.0 mi South 13.8 mph - 0.00 in   Overcast
3:52 PM 57.0 °F - 35.1 °F 44% 29.75 in 10.0 mi SW 9.2 mph - N/A   Overcast
4:52 PM 55.0 °F - 36.0 °F 49% 29.75 in 10.0 mi WSW 9.2 mph - N/A   Mostly Cloudy
5:52 PM 53.1 °F - 36.0 °F 52% 29.76 in 10.0 mi WSW 3.5 mph - N/A   Overcast
6:52 PM 51.1 °F - 37.9 °F 61% 29.76 in 10.0 mi SW 4.6 mph - 0.00 in Rain Light Rain
7:52 PM 51.1 °F - 39.9 °F 66% 29.75 in 10.0 mi SW 9.2 mph - 0.00 in   Overcast
8:52 PM 50.0 °F - 37.0 °F 61% 29.75 in 10.0 mi SW 9.2 mph - N/A   Clear
9:52 PM 50.0 °F - 36.0 °F 59% 29.75 in 10.0 mi SW 9.2 mph - N/A   Partly Cloudy
10:52 PM 53.1 °F - 37.0 °F 55% 29.74 in 10.0 mi WSW 11.5 mph - N/A   Partly Cloudy
11:52 PM 52.0 °F - 37.9 °F 59% 29.74 in 10.0 mi West 10.4 mph - N/A   Clear